TimeEST,TemperatureF,Dew PointF,Humidity,Sea Level PressureIn,VisibilityMPH,Wind Direction,Wind SpeedMPH,Gust SpeedMPH,PrecipitationIn,Events,Conditions,WindDirDegrees,DateUTC
12:15 AM,-0.0,-2.7,88,30.51,10.0,North,-9999.0,-,N/A,,Clear,0,2014-01-24 05:15:00
12:35 AM,-0.6,-3.1,89,30.51,10.0,North,-9999.0,-,N/A,,Clear,0,2014-01-24 05:35:00
12:55 AM,-1.3,-3.8,89,30.51,10.0,North,-9999.0,-,N/A,,Clear,0,2014-01-24 05:55:00
1:15 AM,-1.7,-3.8,91,30.51,10.0,North,-9999.0,-,N/A,,Clear,0,2014-01-24 06:15:00
1:35 AM,-2.2,-4.2,91,30.52,10.0,North,-9999.0,-,N/A,,Clear,0,2014-01-24 06:35:00
1:55 AM,-2.4,-4.5,90,30.53,10.0,North,-9999.0,-,N/A,,Scattered Clouds,0,2014-01-24 06:55:00
2:15 AM,-2.0,-4.0,91,30.53,10.0,North,-9999.0,-,N/A,,Scattered Clouds,0,2014-01-24 07:15:00
2:35 AM,-0.9,-3.5,89,30.55,5.0,North,-9999.0,-,N/A,Snow,Light Snow,0,2014-01-24 07:35:00
2:55 AM,0.1,-2.2,90,30.56,5.0,North,-9999.0,-,N/A,Snow,Light Snow,0,2014-01-24 07:55:00
3:15 AM,1.6,-0.9,89,30.57,4.0,North,-9999.0,-,N/A,Snow,Light Snow,0,2014-01-24 08:15:00
3:35 AM,3.0,-0.4,86,30.56,4.0,North,-9999.0,-,N/A,Snow,Light Snow,0,2014-01-24 08:35:00
3:55 AM,3.4,-0.4,84,30.56,5.0,North,-9999.0,-,N/A,Snow,Light Snow,0,2014-01-24 08:55:00
4:15 AM,3.0,-0.9,84,30.57,7.0,North,-9999.0,-,N/A,Snow,Light Snow,0,2014-01-24 09:15:00
4:35 AM,3.0,-0.9,84,30.56,4.0,North,-9999.0,-,N/A,Snow,Light Snow,0,2014-01-24 09:35:00
4:55 AM,2.8,-0.9,84,30.56,3.0,North,-9999.0,-,N/A,Snow,Light Snow,0,2014-01-24 09:55:00
5:15 AM,3.0,-0.6,85,30.56,2.5,North,-9999.0,-,N/A,Snow,Light Snow,0,2014-01-24 10:15:00
5:35 AM,2.8,-0.8,85,30.56,2.5,North,-9999.0,-,N/A,Snow,Light Snow,0,2014-01-24 10:35:00
5:55 AM,2.3,-1.3,85,30.56,2.5,North,-9999.0,-,N/A,Snow,Light Snow,0,2014-01-24 10:55:00
6:15 AM,1.4,-1.7,87,30.56,4.0,North,-9999.0,-,N/A,Snow,Light Snow,0,2014-01-24 11:15:00
6:35 AM,0.5,-2.0,89,30.56,3.0,North,-9999.0,-,N/A,Snow,Light Snow,0,2014-01-24 11:35:00
6:55 AM,-0.6,-3.1,89,30.56,2.5,North,-9999.0,-,N/A,Snow,Light Snow,0,2014-01-24 11:55:00
7:15 AM,-0.8,-3.1,90,30.56,2.0,North,-9999.0,-,N/A,Snow,Light Snow,0,2014-01-24 12:15:00
7:35 AM,-1.5,-3.8,90,30.56,2.0,North,-9999.0,-,N/A,Snow,Light Snow,0,2014-01-24 12:35:00
7:55 AM,-2.0,-4.2,91,30.55,2.0,North,-9999.0,-,N/A,Snow,Light Snow,0,2014-01-24 12:55:00
8:15 AM,-2.2,-4.2,91,30.54,1.2,North,-9999.0,-,N/A,Snow,Light Snow,0,2014-01-24 13:15:00
8:35 AM,-1.3,-3.3,91,30.53,4.0,North,-9999.0,-,N/A,Snow,Light Snow,0,2014-01-24 13:35:00
8:55 AM,1.2,-1.8,87,30.53,10.0,North,-9999.0,-,N/A,,Clear,0,2014-01-24 13:55:00
9:15 AM,3.2,-0.8,84,30.53,10.0,North,-9999.0,-,N/A,,Clear,0,2014-01-24 14:15:00
9:35 AM,4.6,0.1,82,30.52,10.0,North,-9999.0,-,N/A,,Clear,0,2014-01-24 14:35:00
9:55 AM,7.3,1.2,76,30.52,10.0,North,-9999.0,-,N/A,,Clear,0,2014-01-24 14:55:00
10:15 AM,8.2,1.2,73,30.52,10.0,North,-9999.0,-,N/A,Snow,Light Snow,0,2014-01-24 15:15:00
10:35 AM,8.8,0.7,70,30.52,10.0,North,-9999.0,-,N/A,,Clear,0,2014-01-24 15:35:00
10:55 AM,9.7,0.3,66,30.51,10.0,North,-9999.0,-,N/A,,Clear,0,2014-01-24 15:55:00
11:15 AM,10.8,1.2,65,30.51,10.0,North,-9999.0,-,N/A,,Clear,0,2014-01-24 16:15:00
11:35 AM,11.8,1.9,65,30.51,10.0,North,-9999.0,-,N/A,,Clear,0,2014-01-24 16:35:00
11:55 AM,13.8,2.7,61,30.50,10.0,North,-9999.0,-,N/A,,Clear,0,2014-01-24 16:55:00
12:15 PM,14.9,2.7,58,30.49,10.0,North,-9999.0,-,N/A,,Clear,0,2014-01-24 17:15:00
12:35 PM,15.6,2.7,57,30.47,10.0,North,-9999.0,-,N/A,,Clear,0,2014-01-24 17:35:00
12:55 PM,17.6,2.5,52,30.45,10.0,North,-9999.0,-,N/A,,Clear,0,2014-01-24 17:55:00
1:15 PM,18.7,3.4,51,30.44,10.0,North,-9999.0,-,N/A,,Clear,0,2014-01-24 18:15:00
1:35 PM,19.4,2.7,48,30.42,10.0,North,-9999.0,-,N/A,,Clear,0,2014-01-24 18:35:00
1:55 PM,20.7,3.6,48,30.40,10.0,North,-9999.0,-,N/A,,Clear,0,2014-01-24 18:55:00
2:15 PM,20.7,1.8,44,30.38,10.0,North,-9999.0,-,N/A,,Clear,0,2014-01-24 19:15:00
2:35 PM,21.9,1.9,42,30.35,10.0,North,-9999.0,-,N/A,,Clear,0,2014-01-24 19:35:00
2:55 PM,22.3,1.2,40,30.34,10.0,North,-9999.0,-,N/A,,Clear,0,2014-01-24 19:55:00
3:15 PM,22.8,1.2,39,30.33,10.0,North,-9999.0,-,N/A,,Clear,0,2014-01-24 20:15:00
3:35 PM,22.8,1.2,39,30.31,10.0,North,-9999.0,-,N/A,,Clear,0,2014-01-24 20:35:00
3:55 PM,22.8,1.8,40,30.29,10.0,North,-9999.0,-,N/A,,Clear,0,2014-01-24 20:55:00
4:15 PM,21.2,1.4,42,30.28,10.0,North,-9999.0,-,N/A,,Clear,0,2014-01-24 21:15:00
4:35 PM,20.8,1.4,43,30.27,10.0,North,-9999.0,-,N/A,,Clear,0,2014-01-24 21:35:00
4:55 PM,20.5,1.8,44,30.26,10.0,North,-9999.0,-,N/A,,Clear,0,2014-01-24 21:55:00
5:15 PM,18.5,5.9,58,30.25,10.0,North,-9999.0,-,N/A,,Clear,0,2014-01-24 22:15:00
5:35 PM,17.4,5.9,61,30.25,10.0,North,-9999.0,-,N/A,,Clear,0,2014-01-24 22:35:00
5:55 PM,15.4,7.2,70,30.24,10.0,North,-9999.0,-,N/A,,Clear,0,2014-01-24 22:55:00
6:15 PM,14.0,7.5,75,30.23,10.0,North,-9999.0,-,N/A,,Clear,0,2014-01-24 23:15:00
6:35 PM,13.6,7.9,78,30.22,10.0,North,-9999.0,-,N/A,,Clear,0,2014-01-24 23:35:00
6:55 PM,13.1,8.6,82,30.21,10.0,North,-9999.0,-,N/A,,Clear,0,2014-01-24 23:55:00
7:15 PM,12.4,8.4,84,30.19,10.0,North,-9999.0,-,N/A,,Clear,0,2014-01-25 00:15:00
7:35 PM,11.7,7.5,83,30.18,10.0,North,-9999.0,-,N/A,,Clear,0,2014-01-25 00:35:00
7:55 PM,10.8,7.5,87,30.17,10.0,North,-9999.0,-,N/A,,Clear,0,2014-01-25 00:55:00
8:15 PM,10.2,7.0,87,30.14,10.0,North,-9999.0,-,N/A,,Clear,0,2014-01-25 01:15:00
8:35 PM,10.8,7.2,85,30.13,10.0,North,-9999.0,-,N/A,,Clear,0,2014-01-25 01:35:00
8:55 PM,10.0,6.6,86,30.12,10.0,North,-9999.0,-,N/A,,Clear,0,2014-01-25 01:55:00
9:15 PM,9.9,6.8,87,30.11,10.0,North,-9999.0,-,N/A,,Clear,0,2014-01-25 02:15:00
9:35 PM,8.6,6.3,90,30.10,10.0,North,-9999.0,-,N/A,,Clear,0,2014-01-25 02:35:00
9:55 PM,7.9,5.7,91,30.10,10.0,North,-9999.0,-,N/A,,Clear,0,2014-01-25 02:55:00
10:15 PM,7.5,5.2,90,30.08,10.0,North,-9999.0,-,N/A,,Clear,0,2014-01-25 03:15:00
10:35 PM,6.4,4.1,90,30.07,10.0,North,-9999.0,-,N/A,,Clear,0,2014-01-25 03:35:00
10:55 PM,5.9,3.9,92,30.06,10.0,North,-9999.0,-,N/A,,Clear,0,2014-01-25 03:55:00
11:15 PM,5.5,3.2,90,30.04,10.0,North,-9999.0,-,N/A,,Clear,0,2014-01-25 04:15:00
11:35 PM,5.4,3.2,91,30.03,10.0,North,-9999.0,-,N/A,,Clear,0,2014-01-25 04:35:00
11:55 PM,5.0,3.0,92,30.03,10.0,North,-9999.0,-,N/A,,Clear,0,2014-01-25 04:55:00